Location: Acequia del Cap
(41.7000°N, 0.6167°E)
Time: 16:09:06
(UTC+00:00)

Cosmos 2227 - Pass Details

Date: 07 August 2020
Orbit: 835 x 861 km, 71.0° (Epoch: 23 September)

Event Time Altitude Azimuth Distance (km) Brightness Sun altitude
Exits shadow 03:25:01 20° 203° (SSW) 1,873 5.5 -15.7°
Maximum altitude 03:29:06 89° 292° (WNW) 866 4.2 -15.1°
Drops below altitude 10° 03:34:54 10° 24° (NNE) 2,506 7.7 -14.2°
Sets 03:37:22 0° 24° (NNE) 3,446 8.5 -13.9°
